Вернуться в каталог

STARLINK-33592

АктивенСвязьVLEO
NORAD 62765·PAYLOAD·🇺🇸 United States

Запущен Jan 21, 2025 с Vandenberg Space Force Base

Loading…

Ближайшие Пролёты (ближайшие 24 часа)

TLE

СвежийSource: CelesTrak SupGP

Эпоха: Sep 15, 2026, 03:11 UTC

1 62765C 25015H   26258.13312500  .00017356  00000+0  51278-3 0  2582
2 62765  53.1573 158.4580 0001282  86.0450 249.4858 15.34381949    17

Отслеживайте STARLINK-33592 в реальном времени с AllMySat

Download on the App Store